www.pogodaiklimat.ru

АРХИВ ПОГОДЫ в Новороссийске

Время (UTC), дата Ветер
(напр.,м/с)
 
Видим.   Явления Облачность Т
(С)
Тd
(С)
f
(%)
Тe
(С)
Тes
(С)
Комфортность P
(гПа)
Po
(гПа)
Тmin
(С)
Tmax
(С)
R
(мм)
S
(см)
03 11.01 штиль 0
{12}
10 км 3/0
[Ci fib]
+4.2 +0.8 79 +3 +3 тепло 1019.6 1019.2 +2.1
06 11.01 СВ 1 20 км 8/0
[Ci sp]
+3.4 -1.3 71 +2 +3 по сезону 1020.6 1020.2 +2.7
09 11.01 ЮВ 2 20 км 10/10 600 м
[Sc]
+10.9 +0.2 48 +10 +10 тепло 1022.0 1021.6
12 11.01 Ю 2 10 км слабый ливневой дождь 10/10 600 м
[Cb cap]
+9.9 +5.8 76 +8 +8 тепло 1022.4 1022.0
15 11.01 штиль 0 10 км в посл. час ливневой дождь 10/10 600 м
[Cb cap]
+7.1 +4.1 81 +6 +6 тепло 1024.8 1024.4 +11.5 2
18 11.01 Ю 1 10 км {ливн. осадки} 5/5 600 м
[Cu Sc]
+5.7 +4.4 91 +4 +4 тепло 1025.2 1024.8
21 11.01 В 2 10 км 4/4 600 м
[Sc]
+7.1 -0.5 58 +5 +5 тепло 1024.5 1024.1
00 12.01 ЮВ 4 10 км 3/0
[Ac As]
+7.7 +3.4 74 +4 +4 тепло 1023.4 1023.0
03 12.01 ЮВ 2 10 км 6/5 600 м
[Sc Ac As]
+9.4 +4.5 71 +8 +8 тепло 1021.1 1020.7 +5.5
06 12.01 ЮВ 5
{10}
20 км 8/3 600 м
[Sc Ac trans Ci fib]
+9.9 +5.1 72 +7 +7 тепло 1017.6 1017.2
09 12.01 ЮВ 4 20 км 9/3 600 м
[Sc Ci fib]
+10.6 +5.9 73 +8 +10 тепло 1015.0 1014.6
12 12.01 ЮВ 5
{11}
20 км 10/4 600 м
[Sc Ac As]
+10.2 +5.1 71 +7 +8 тепло 1012.0 1011.6
15 12.01 ЮВ 6
{10}
10 км 8/8 600 м
[Sc]
+9.7 +4.8 71 +6 +6 тепло 1010.3 1009.9 +10.7
18 12.01 З 6-10
{11}
10 км слабый ливневой дождь 10/10 600 м
[Cb cap]
+7.6 +4.1 78 +3 +3 по сезону 1011.2 1010.8
21 12.01 ЮВ 2
{12}
н/о н/о +3.0 +0.4 83 0 0 по сезону 1012.8 1012.4
00 13.01 ЮВ 1 н/о н/о +1.5 -0.4 87 -0 -0 по сезону 1015.3 1015.0
03 13.01 СВ 2 10 км {ливн. осадки} 10/10 600 м
[Cb calv]
+2.3 -0.2 84 -1 -1 по сезону 1016.3 1015.9 +0.8 6 1
06 13.01 З 2 20 км {ливн. осадки} 10/10 600 м
[Sc]
+2.0 -0.2 85 -1 -1 по сезону 1018.3 1017.9
09 13.01 З 2 20 км {ливн. осадки} 8/8 600 м
[Sc Ci fib]
+2.7 -3.2 65 0 +1 по сезону 1019.8 1019.4
12 13.01 З 2 20 км {ливн. осадки} 3/0
[Ac trans]
+4.8 -3.6 54 +3 +4 по сезону 1020.2 1019.8
15 13.01 СВ 1 10 км ясно +2.5 -3.1 67 +1 +1 по сезону 1021.2 1020.8 +5.8
18 13.01 штиль 0 10 км ясно +1.4 -2.7 74 +1 +1 по сезону 1021.8 1021.4
21 13.01 штиль 0 10 км 5/3 600 м
[Sc Ci fib]
+3.6 -2.4 65 +3 +3 по сезону 1020.5 1020.1
00 14.01 Ю 4 10 км 8/3 600 м
[Sc Ac trans]
+5.9 -0.4 64 +2 +2 по сезону 1020.1 1019.7
03 14.01 Ю 3 10 км 8/8 600 м
[Sc]
+6.7 +0.3 64 +4 +4 тепло 1018.9 1018.5 +0.9
06 14.01 ЮВ 4
{10}
20 км 8/5 600 м
[Sc Ac cast]
+6.8 +3.5 79 +3 +3 тепло 1017.3 1016.9
09 14.01 ЮВ 3 20 км 9/5 600 м
[Sc Ac trans]
+8.0 +2.9 70 +6 +6 тепло 1016.3 1015.9
12 14.01 Ю 3 20 км 9/3 600 м
[Sc Ac trans]
+8.1 +3.4 72 +6 +6 тепло 1015.0 1014.6
15 14.01 СВ 3 10 км 8/0
[Ac cast Ci sp]
+6.1 +1.3 71 +3 +3 по сезону 1015.0 1014.6 +8.8
18 14.01 штиль 0 н/о н/о +4.5 -1.3 66 +4 +4 тепло 1012.7 1012.3
21 14.01 штиль 0 10 км 6/0
[Ci fib]
+4.2 -0.0 74 +3 +3 тепло 1013.0 1012.6
00 15.01 В 2 10 км 8/0
[Ci fib]
+8.3 0.0 56 +7 +7 тепло 1013.3 1012.9
03 15.01 штиль 0 10 км 4/0
[Ac trans Ci fib]
+8.0 +3.0 71 +7 +7 тепло 1013.3 1012.9 +3.8
06 15.01 ЮВ 1 20 км 6/0
[Ac trans Ci fib]
+8.1 +3.8 74 +7 +8 тепло 1014.4 1013.9
09 15.01 В 3 20 км 8/3 600 м
[Sc Ac trans Cc]
+10.1 +5.3 72 +8 +9 тепло 1015.3 1014.9
12 15.01 Ю 2 20 км 4/0
[Ac trans Cc]
+10.7 +5.5 70 +10 +11 тепло 1015.7 1015.3
15 15.01 ЮВ 2 10 км 4/3 600 м
[Sc Ci fib]
+8.7 +3.4 69 +7 +7 тепло 1016.7 1016.3 +10.9
18 15.01 Ю 1 10 км 4/0
[Ac cast Ci sp]
+8.7 +1.7 61 +8 +8 тепло 1017.6 1017.2
21 15.01 В 2 10 км 5/0
[Ac cast Ci sp]
+8.9 +4.8 75 +7 +7 тепло 1018.3 1017.9
00 16.01 З 1 10 км слабый ливневой дождь 10/10 600 м
[Cb cap]
+8.3 +5.5 83 +8 +8 тепло 1019.5 1019.1
03 16.01 СВ 2 10 км слабый ливневой дождь 10/10 600 м
[Cb cap]
+6.1 +4.0 86 +4 +4 тепло 1019.6 1019.2 +6.1 3
06 16.01 СВ 1 20 км {ливн. осадки} 10/10 600 м
[Sc]
+6.5 +4.2 85 +5 +5 тепло 1020.2 1019.8
09 16.01 штиль 0 н/о н/о +7.5 +5.1 85 +7 +7 тепло 1020.2 1019.8
12 16.01 Ю 1 20 км {ливн. осадки} 10/10 600 м
[Sc]
+8.3 +4.5 77 +8 +8 тепло 1021.1 1020.7
15 16.01 штиль 0 10 км 10/10 600 м
[Sc]
+7.2 +4.6 84 +6 +6 тепло 1020.9 1020.5 +9.3
18 16.01 СВ 5
{10}
10 км 10/10 600 м
[Sc]
+5.7 +2.0 77 +1 +1 по сезону 1020.8 1020.4
21 16.01 СЗ 1
{11}
н/о н/о +6.1 +2.3 77 +5 +5 тепло 1020.2 1019.9
00 17.01 СВ 7-10
{11}
10 км {ливн. осадки} 10/10 600 м
[Cb calv]
+6.8 +1.0 66 +2 +2 по сезону 1020.8 1020.4
03 17.01 СВ 9-13
{14}
10 км 10/10 600 м
[Sc]
+7.6 +0.6 61 +3 +3 тепло 1020.2 1019.8 +5.2
06 17.01 СВ 6-10
{13}
20 км 9/6 600 м
[Sc Ac trans]
+8.3 0.0 56 +5 +5 тепло 1021.3 1020.9
09 17.01 СВ 5
{11}
20 км {ливн. осадки} 8/5 600 м
[Sc Ac trans Ci fib]
+9.2 0.0 53 +6 +7 тепло 1021.7 1021.3
12 17.01 СВ 5
{11}
20 км {ливн. осадки} 6/0 600 м
[Ac trans Cc]
+9.4 +0.9 55 +7 +7 тепло 1021.2 1020.8
15 17.01 СВ 9-14
{14}
10 км 4/3 600 м
[St Cc]
+5.1 +1.0 75 -1 -1 по сезону 1021.9 1021.5 +10.6
18 17.01 СВ 10-15
{17}
10 км 4/3 600 м
[St Ci fib]
+5.1 +0.7 73 -1 -1 по сезону 1022.3 1021.9
21 17.01 СВ 11-16
{18}
10 км 3/3 600 м
[St Ci fib]
+5.5 -0.6 65 -1 -1 по сезону 1022.0 1021.6
00 18.01 ЮВ 9-16
{20}
н/о н/о +4.0 +0.5 78 -2 -2 по сезону 1021.3 1021.0

 

Местоположение метеостанции Новороссийск (Краснодарский край, Россия): широта 44.72 долгота 37.85 высота над уровнем моря 3 м.

В архиве по умолчанию представлена погода в Новороссийске за последнюю неделю. Архивные данные за месяц целиком и за предыдущие месяцы, начиная с января 2011 года, Вы можете получить, выбрав интересующий диапазон дат из раскрывающегося списка и нажав кнопку "Ввод!".

Внимание! Время в таблицах - всемирное. Для получения местного времени необходимо прибавить поправку, которая в Новороссийске равна 3 ч.

Ветер - указаны скорость ветра в м/с - средняя за 10 мин, порывы в срок и между сроками (в фигурных скобках) и направление, откуда дует ветер: С - северный, СВ - северо-восточный, В - восточный, ЮВ - юго-восточный, Ю - южный, ЮЗ - юго-западный, З - западный, СЗ - северо-западный.
Видимость - горизонтальная дальность видимости в метрах или километрах. При видимости от 1 до 10 км при отсутствии осадков обычно наблюдается дымка, при ухудшении видимости до 1 км и менее - туман. В сухую погоду видимость может ухудшаться дымом, пылью или мглою.
Явления - указаны атмосферные явления, наблюдавшиеся в срок или в последний час перед сроком; фигурными скобками обозначены явления, наблюдавшиеся между сроками (за 1-3 часа до срока); квадратными скобками обозначены град или гололедные отложения с указанием их диаметра в мм.
Облачность - указаны через наклонную черту общая и нижняя облачность в баллах и высота нижней границы облаков в метрах; квадратными скобками обозначены формы облаков: Ci - перистые, Cs - перисто-слоистые, Cc - перисто-кучевые, Ac - высококучевые, As - высокослоистые, Sc - слоисто-кучевые, Ns - слоисто-дождевые, Cu - кучевые, Cb - кучево-дождевые. Подробнее классификацию облаков см. в Атласе облаков (PDF).
T - Температура воздуха - температура, измеренная на высоте 2 м над землей.
Td - Температура точки росы - температура, при понижении до которой содержащийся в воздухе водяной пар достигнет насыщения.
f - Относительная влажность воздуха - влажноcть воздуха, измеренная на высоте 2 м над землей.
Te - Эффективная температура - температура, которую ощущает одетый по сезону человек в тени. Характеристика душности погоды. При расчете учитывается влияние влажности воздуха и скорости ветра на теплоощущения человека.
Tes - Эффективная температура на солнце - температура, которую ощущает человек, с поправкой на солнечный нагрев. Характеристика знойности погоды. Зависит от высоты солнца над горизонтом, облачности и скорости ветра. Ночью, в пасмурную погоду, а также при ветре 12 м/с и более поправка равна нулю.
P - Атмосферное давление - приведенное к уровню моря атмосферное давление.
Po - Атмосферное давление - измеренное на уровне метеостанции атмосферное давление.
Tmin - Минимальная температура - минимум температуры воздуха на высоте 2 м над землей.
Tmax - Максимальная температура - максимум температуры воздуха на высоте 2 м над землей.
R - Количество осадков - Количество выпавших осадков, мм. При наведении курсора мыши на число - период времени, за который выпало указанное количество осадков.
S - Снежный покров - Высота снежного покрова, см. При наведении курсора мыши на число - состояние снежного покрова и степень покрытия местности в баллах.